sat.trackr.live / text

‹ back to catalog

ASIASTAR

NORAD 26107 · 2000-016A

PAYLOAD ACTIVE UNKNOWN

§ Identity

Operator
Country
US
Launch date
2000-03-21
Launch site
FRGUI
Launch vehicle
Mass (kg)
RCS (m²)
25.12

Purposes: comms

External: N2YO · Heavens-Above · Gunter

§ Orbital elements

Epoch: 2026-09-12T21:14:48.694848Z

Period
1,436.13 min
Inclination
9.3303°
Eccentricity
0.0003928
Mean motion
1.00269235 rev/d
Perigee alt
35,770.7 km
Apogee alt
35,803.9 km
Semi-major
42,165.4 km
B*
0.0000e+0
RAAN
57.1897°
Arg perigee
119.1886°
Mean anomaly
239.1918°
Rev number
9,679

§ Raw data

ASIASTAR1 26107U 00016A   26255.88528582 -.00000342  00000+0  00000+0 0  99972 26107   9.3303  57.1897 0003928 119.1886 239.1918  1.00269235 96791

JSON: /api/v1/satellites/26107 · /tle

For live sub-satellite position, see the globe view (requires WebGL).

§ Visibility from observer

Set your observer location to see the next 7 days of passes ≥ 10°. The values pass through the URL so the page stays shareable.

No JS? Fill the form by hand. The geolocation button needs JavaScript.